Wetterdaten: Samstag, 01.05.2004
Datum Zeit Temp. A Sch. Temp. A Son. Feuchte A. Luftdruck Regen Wind Richtung Richtung Sonnenschein Helligkeit Taupunkt Windchill
01.05.2004 00:00 13,7 C 14,0 C 90 % 1002 hPa 0,0 l/m 2,7 m/s (1 Bft) W45 270 0,00 min 0 lux 12,1 C 11,8 C
01.05.2004 00:05 13,5 C 14,0 C 88 % 1002 hPa 0,0 l/m 1,4 m/s (1 Bft) W22.5 265 0,00 min 0 lux 11,6 C 13,5 C
01.05.2004 00:10 13,4 C 14,0 C 87 % 1002 hPa 0,0 l/m 4,9 m/s (1 Bft) W22.5 280 0,00 min 0 lux 11,3 C 8,3 C
01.05.2004 00:15 13,8 C 14,0 C 85 % 1002 hPa 0,0 l/m 4,2 m/s (1 Bft) W45 270 0,00 min 0 lux 11,3 C 9,7 C
01.05.2004 00:20 14,0 C 14,1 C 81 % 1002 hPa 0,0 l/m 4,6 m/s (1 Bft) W45 270 0,00 min 0 lux 10,8 C 9,4 C
01.05.2004 00:25 13,8 C 14,1 C 82 % 1002 hPa 0,0 l/m 3,6 m/s (1 Bft) W22.5 265 0,00 min 0 lux 10,8 C 10,5 C
01.05.2004 00:30 13,7 C 14,1 C 83 % 1002 hPa 0,0 l/m 4,4 m/s (1 Bft) W45 280 0,00 min 0 lux 10,9 C 9,4 C
01.05.2004 00:35 13,6 C 14,1 C 82 % 1002 hPa 0,0 l/m 1,8 m/s (1 Bft) W45 260 0,00 min 0 lux 10,6 C 13,5 C
01.05.2004 00:40 13,5 C 14,1 C 82 % 1002 hPa 0,0 l/m 2,8 m/s (1 Bft) W-SW22.5 255 0,00 min 0 lux 10,5 C 11,5 C
01.05.2004 00:45 13,5 C 14,1 C 82 % 1002 hPa 0,0 l/m 3,0 m/s (1 Bft) W-SW22.5 255 0,00 min 0 lux 10,5 C 11,1 C
01.05.2004 00:50 13,6 C 14,1 C 82 % 1002 hPa 0,0 l/m 2,7 m/s (1 Bft) W45 275 0,00 min 0 lux 10,6 C 11,7 C
01.05.2004 00:55 13,7 C 14,2 C 82 % 1002 hPa 0,0 l/m 2,9 m/s (1 Bft) W45 265 0,00 min 0 lux 10,7 C 11,5 C
01.05.2004 01:00 13,7 C 14,2 C 81 % 1002 hPa 0,0 l/m 3,1 m/s (1 Bft) W45 265 0,00 min 0 lux 10,5 C 11,2 C
01.05.2004 01:05 13,7 C 14,2 C 81 % 1002 hPa 0,0 l/m 2,3 m/s (1 Bft) W45 260 0,00 min 0 lux 10,5 C 12,6 C
01.05.2004 01:10 13,8 C 14,2 C 81 % 1003 hPa 0,0 l/m 3,6 m/s (1 Bft) W45 280 0,00 min 0 lux 10,6 C 10,6 C
01.05.2004 01:15 13,8 C 14,2 C 81 % 1003 hPa 0,0 l/m 2,6 m/s (1 Bft) W-SW22.5 255 0,00 min 0 lux 10,6 C 12,1 C
01.05.2004 01:20 13,8 C 14,2 C 80 % 1003 hPa 0,0 l/m 2,4 m/s (1 Bft) W22.5 270 0,00 min 0 lux 10,4 C 12,5 C
01.05.2004 01:25 13,8 C 14,2 C 80 % 1003 hPa 0,0 l/m 2,9 m/s (1 Bft) W-SW22.5 250 0,00 min 0 lux 10,4 C 11,6 C
01.05.2004 01:30 13,8 C 14,2 C 80 % 1003 hPa 0,0 l/m 3,1 m/s (1 Bft) W-SW22.5 250 0,00 min 0 lux 10,4 C 11,3 C
01.05.2004 01:35 14,0 C 14,2 C 78 % 1003 hPa 0,0 l/m 3,9 m/s (1 Bft) W-SW45 250 0,00 min 0 lux 10,2 C 10,3 C
01.05.2004 01:40 14,0 C 14,2 C 78 % 1003 hPa 0,0 l/m 3,5 m/s (1 Bft) W-SW22.5 245 0,00 min 0 lux 10,2 C 10,9 C
01.05.2004 01:45 13,9 C 14,3 C 79 % 1002 hPa 0,0 l/m 2,3 m/s (1 Bft) W22.5 265 0,00 min 0 lux 10,3 C 12,8 C
01.05.2004 01:50 14,1 C 14,3 C 78 % 1002 hPa 0,0 l/m 3,8 m/s (1 Bft) W-SW22.5 245 0,00 min 0 lux 10,3 C 10,6 C
01.05.2004 01:55 13,8 C 14,3 C 79 % 1002 hPa 0,4 l/m 2,1 m/s (1 Bft) W-SW22.5 240 0,00 min 0 lux 10,2 C 13,1 C
01.05.2004 02:00 13,6 C 14,3 C 82 % 1003 hPa 0,4 l/m 3,1 m/s (1 Bft) W22.5 270 0,00 min 0 lux 10,6 C 11,0 C
01.05.2004 02:05 13,5 C 14,2 C 82 % 1003 hPa 0,0 l/m 3,1 m/s (1 Bft) W45 265 0,00 min 0 lux 10,5 C 11,0 C
01.05.2004 02:10 13,4 C 14,2 C 83 % 1003 hPa 0,0 l/m 2,6 m/s (1 Bft) W-SW45 255 0,00 min 0 lux 10,6 C 11,7 C
01.05.2004 02:15 13,3 C 14,1 C 84 % 1003 hPa 0,0 l/m 1,7 m/s (1 Bft) W-SW22.5 245 0,00 min 0 lux 10,7 C 13,3 C
01.05.2004 02:20 13,2 C 14,0 C 84 % 1003 hPa 0,0 l/m 1,3 m/s (1 Bft) W-NW22.5 290 0,00 min 0 lux 10,6 C 13,2 C
01.05.2004 02:25 13,2 C 14,0 C 85 % 1002 hPa 0,0 l/m 2,9 m/s (1 Bft) NW45 310 0,00 min 0 lux 10,7 C 10,9 C
01.05.2004 02:30 13,2 C 13,9 C 85 % 1002 hPa 0,0 l/m 3,5 m/s (1 Bft) W-NW45 300 0,00 min 0 lux 10,7 C 9,9 C
01.05.2004 02:35 13,3 C 13,9 C 84 % 1002 hPa 0,0 l/m 4,5 m/s (1 Bft) NW45 315 0,00 min 0 lux 10,7 C 8,7 C
01.05.2004 02:40 13,3 C 14,0 C 84 % 1002 hPa 0,0 l/m 5,9 m/s (2 Bft) W-NW22.5 300 0,00 min 0 lux 10,7 C 7,3 C
01.05.2004 02:45 13,5 C 14,0 C 82 % 1002 hPa 0,0 l/m 5,8 m/s (2 Bft) W-NW22.5 295 0,00 min 0 lux 10,5 C 7,6 C
01.05.2004 02:50 13,5 C 14,0 C 82 % 1002 hPa 0,0 l/m 5,6 m/s (1 Bft) NW45 305 0,00 min 0 lux 10,5 C 7,8 C
01.05.2004 02:55 13,5 C 14,0 C 81 % 1002 hPa 0,0 l/m 3,4 m/s (1 Bft) W-NW45 300 0,00 min 0 lux 10,3 C 10,4 C
01.05.2004 03:00 13,6 C 14,0 C 82 % 1002 hPa 0,0 l/m 2,5 m/s (1 Bft) W22.5 275 0,00 min 0 lux 10,6 C 12,1 C
01.05.2004 03:05 13,4 C 13,9 C 83 % 1002 hPa 0,0 l/m 0,4 m/s (0 Bft) W-SW 250 0,00 min 0 lux 10,6 C 13,4 C
01.05.2004 03:10 13,3 C 13,9 C 83 % 1002 hPa 0,0 l/m 1,6 m/s (1 Bft) W-SW22.5 240 0,00 min 0 lux 10,5 C 13,3 C
01.05.2004 03:15 13,1 C 13,8 C 83 % 1002 hPa 0,0 l/m 0,0 m/s (0 Bft) SW 225 0,00 min 0 lux 10,3 C 13,1 C
01.05.2004 03:20 13,0 C 13,8 C 84 % 1002 hPa 0,0 l/m 1,3 m/s (1 Bft) SW 225 0,00 min 0 lux 10,4 C 13,0 C
01.05.2004 03:25 13,0 C 13,7 C 85 % 1002 hPa 0,0 l/m 1,1 m/s (1 Bft) SW 235 0,00 min 0 lux 10,5 C 13,0 C
01.05.2004 03:30 12,8 C 13,6 C 87 % 1002 hPa 0,0 l/m 1,6 m/s (1 Bft) W 260 0,00 min 0 lux 10,7 C 12,8 C
01.05.2004 03:35 13,0 C 13,6 C 86 % 1002 hPa 0,0 l/m 2,3 m/s (1 Bft) W-SW22.5 255 0,00 min 0 lux 10,7 C 11,8 C
01.05.2004 03:40 13,0 C 13,6 C 85 % 1002 hPa 0,0 l/m 2,3 m/s (1 Bft) W-SW22.5 250 0,00 min 0 lux 10,5 C 11,8 C
01.05.2004 03:45 13,0 C 13,5 C 85 % 1002 hPa 0,0 l/m 1,8 m/s (1 Bft) W22.5 265 0,00 min 0 lux 10,5 C 13,0 C
01.05.2004 03:50 12,9 C 13,5 C 86 % 1002 hPa 0,0 l/m 1,6 m/s (1 Bft) W22.5 265 0,00 min 0 lux 10,6 C 12,9 C
01.05.2004 03:55 12,9 C 13,4 C 87 % 1002 hPa 0,0 l/m 1,9 m/s (1 Bft) W-SW22.5 250 0,00 min 0 lux 10,8 C 12,7 C
01.05.2004 04:00 12,8 C 13,4 C 87 % 1002 hPa 0,0 l/m 1,7 m/s (1 Bft) W-SW22.5 245 0,00 min 0 lux 10,7 C 12,8 C
01.05.2004 04:05 12,6 C 13,3 C 88 % 1002 hPa 0,0 l/m 2,3 m/s (1 Bft) W-SW22.5 245 0,00 min 0 lux 10,7 C 11,4 C
01.05.2004 04:10 12,6 C 13,3 C 89 % 1002 hPa 0,0 l/m 2,6 m/s (1 Bft) W-SW22.5 250 0,00 min 0 lux 10,8 C 10,9 C
01.05.2004 04:15 12,6 C 13,2 C 89 % 1002 hPa 0,0 l/m 2,6 m/s (1 Bft) W-SW22.5 250 0,00 min 0 lux 10,8 C 10,9 C
01.05.2004 04:20 12,5 C 13,2 C 89 % 1002 hPa 0,0 l/m 2,0 m/s (1 Bft) W-SW22.5 250 0,00 min 0 lux 10,7 C 11,9 C
01.05.2004 04:25 12,6 C 13,1 C 89 % 1002 hPa 0,0 l/m 3,0 m/s (1 Bft) W22.5 270 0,00 min 0 lux 10,8 C 10,1 C
01.05.2004 04:30 12,5 C 13,1 C 89 % 1002 hPa 0,0 l/m 2,7 m/s (1 Bft) W-SW22.5 255 0,00 min 0 lux 10,7 C 10,6 C
01.05.2004 04:35 12,5 C 13,1 C 88 % 1002 hPa 0,0 l/m 1,6 m/s (1 Bft) SW22.5 235 0,00 min 0 lux 10,6 C 12,5 C
01.05.2004 04:40 12,5 C 13,1 C 88 % 1002 hPa 0,0 l/m 2,3 m/s (1 Bft) W45 265 0,00 min 0 lux 10,6 C 11,4 C
01.05.2004 04:45 12,5 C 13,1 C 88 % 1002 hPa 0,0 l/m 2,8 m/s (1 Bft) W-SW22.5 255 0,00 min 0 lux 10,6 C 10,3 C
01.05.2004 04:50 12,6 C 13,1 C 88 % 1002 hPa 0,0 l/m 2,3 m/s (1 Bft) W22.5 260 0,00 min 0 lux 10,7 C 11,4 C
01.05.2004 04:55 12,6 C 13,0 C 88 % 1002 hPa 0,0 l/m 2,9 m/s (1 Bft) W-NW22.5 285 0,00 min 0 lux 10,7 C 10,2 C
01.05.2004 05:00 12,6 C 13,0 C 88 % 1002 hPa 0,0 l/m 1,9 m/s (1 Bft) W22.5 275 0,00 min 0 lux 10,7 C 12,4 C
01.05.2004 05:05 12,5 C 13,0 C 88 % 1002 hPa 0,0 l/m 0,2 m/s (0 Bft) W22.5 265 0,00 min 0 lux 10,6 C 12,5 C
01.05.2004 05:10 12,5 C 13,0 C 88 % 1002 hPa 0,0 l/m 0,0 m/s (0 Bft) W 270 0,00 min 0 lux 10,6 C 12,5 C
01.05.2004 05:15 12,4 C 13,0 C 89 % 1003 hPa 0,0 l/m 0,0 m/s (0 Bft) W 270 0,00 min 0 lux 10,6 C 12,4 C
01.05.2004 05:20 12,4 C 13,0 C 89 % 1003 hPa 0,0 l/m 2,8 m/s (1 Bft) W-NW22.5 285 0,00 min 0 lux 10,6 C 10,2 C
01.05.2004 05:25 12,5 C 13,0 C 89 % 1003 hPa 0,4 l/m 1,6 m/s (1 Bft) W-SW 250 0,00 min 0 lux 10,7 C 12,5 C
01.05.2004 05:30 12,4 C 13,0 C 89 % 1003 hPa 0,0 l/m 2,1 m/s (1 Bft) W-SW22.5 245 0,00 min 0 lux 10,6 C 11,7 C
01.05.2004 05:35 12,2 C 13,0 C 90 % 1003 hPa 0,0 l/m 3,0 m/s (1 Bft) W-SW45 250 0,00 min 0 lux 10,6 C 9,6 C
01.05.2004 05:40 12,1 C 12,9 C 90 % 1003 hPa 0,0 l/m 2,6 m/s (1 Bft) W-SW22.5 240 0,00 min 0 lux 10,5 C 10,3 C
01.05.2004 05:45 12,0 C 12,8 C 91 % 1003 hPa 0,0 l/m 2,6 m/s (1 Bft) W-SW22.5 250 0,00 min 0 lux 10,6 C 10,1 C
01.05.2004 05:50 12,0 C 12,8 C 92 % 1003 hPa 0,0 l/m 2,6 m/s (1 Bft) W-SW22.5 245 0,00 min 37 lux 10,7 C 10,1 C
01.05.2004 05:55 12,0 C 12,8 C 92 % 1003 hPa 0,0 l/m 2,8 m/s (1 Bft) W-SW22.5 245 0,00 min 61 lux 10,7 C 9,7 C
01.05.2004 06:00 12,0 C 12,7 C 92 % 1003 hPa 0,0 l/m 1,3 m/s (1 Bft) SW 235 0,00 min 83 lux 10,7 C 12,0 C
01.05.2004 06:05 12,0 C 12,7 C 92 % 1003 hPa 0,0 l/m 1,6 m/s (1 Bft) W-SW 240 0,00 min 101 lux 10,7 C 12,0 C
01.05.2004 06:10 12,0 C 12,7 C 92 % 1003 hPa 0,0 l/m 1,4 m/s (1 Bft) W-SW 255 0,00 min 145 lux 10,7 C 12,0 C
01.05.2004 06:15 12,1 C 12,7 C 92 % 1003 hPa 0,0 l/m 1,9 m/s (1 Bft) W 260 0,00 min 211 lux 10,8 C 11,9 C
01.05.2004 06:20 12,1 C 12,7 C 92 % 1003 hPa 0,0 l/m 1,2 m/s (1 Bft) W22.5 280 0,00 min 309 lux 10,8 C 12,1 C
01.05.2004 06:25 12,0 C 12,7 C 92 % 1003 hPa 0,0 l/m 1,9 m/s (1 Bft) W45 270 0,00 min 418 lux 10,7 C 11,7 C
01.05.2004 06:30 12,1 C 12,7 C 92 % 1003 hPa 0,0 l/m 1,1 m/s (1 Bft) W 265 0,00 min 534 lux 10,8 C 12,1 C
01.05.2004 06:35 12,1 C 12,7 C 92 % 1003 hPa 0,0 l/m 0,0 m/s (0 Bft) W 270 0,00 min 735 lux 10,8 C 12,1 C
01.05.2004 06:40 12,1 C 12,7 C 92 % 1003 hPa 0,0 l/m 0,0 m/s (0 Bft) W 270 0,00 min 988 lux 10,8 C 12,1 C
01.05.2004 06:45 12,1 C 12,7 C 92 % 1003 hPa 0,0 l/m 0,0 m/s (0 Bft) W 270 0,00 min 1,36 klux 10,8 C 12,1 C
01.05.2004 06:50 12,1 C 12,7 C 92 % 1003 hPa 0,0 l/m 0,0 m/s (0 Bft) W 270 0,00 min 1,61 klux 10,8 C 12,1 C
01.05.2004 06:55 12,1 C 12,7 C 92 % 1003 hPa 0,0 l/m 0,0 m/s (0 Bft) W 270 0,00 min 2,54 klux 10,8 C 12,1 C
01.05.2004 07:00 12,2 C 12,7 C 92 % 1004 hPa 0,0 l/m 0,3 m/s (0 Bft) W 260 0,00 min 3,05 klux 10,9 C 12,2 C
01.05.2004 07:05 12,4 C 12,8 C 91 % 1004 hPa 0,0 l/m 0,3 m/s (0 Bft) W22.5 260 0,00 min 3,68 klux 11,0 C 12,4 C
01.05.2004 07:10 12,4 C 12,8 C 91 % 1004 hPa 0,0 l/m 1,1 m/s (1 Bft) W-SW22.5 240 0,00 min 4,34 klux 11,0 C 12,4 C
01.05.2004 07:15 12,4 C 12,9 C 91 % 1004 hPa 0,0 l/m 1,3 m/s (1 Bft) W-SW22.5 240 0,00 min 4,98 klux 11,0 C 12,4 C
01.05.2004 07:20 12,5 C 12,9 C 91 % 1004 hPa 0,0 l/m 1,2 m/s (1 Bft) W-SW 245 0,00 min 5,78 klux 11,1 C 12,5 C
01.05.2004 07:25 12,7 C 12,9 C 90 % 1004 hPa 0,0 l/m 0,2 m/s (0 Bft) W-SW 250 0,00 min 6,50 klux 11,1 C 12,7 C
01.05.2004 07:30 12,7 C 13,0 C 90 % 1004 hPa 0,0 l/m 0,9 m/s (0 Bft) W-SW 240 0,00 min 7,23 klux 11,1 C 12,7 C
01.05.2004 07:35 12,8 C 13,0 C 89 % 1004 hPa 0,0 l/m 1,4 m/s (1 Bft) W-SW 240 0,00 min 8,21 klux 11,0 C 12,8 C
01.05.2004 07:40 13,0 C 13,1 C 87 % 1004 hPa 0,0 l/m 0,9 m/s (0 Bft) W-SW22.5 240 0,00 min 9,1 klux 10,9 C 13,0 C
01.05.2004 07:45 13,2 C 13,2 C 86 % 1004 hPa 0,0 l/m 2,3 m/s (1 Bft) W22.5 270 0,00 min 9,5 klux 10,9 C 12,0 C
01.05.2004 07:50 13,3 C 13,2 C 86 % 1004 hPa 0,0 l/m 1,4 m/s (1 Bft) W 265 0,00 min 10,1 klux 11,0 C 13,3 C
01.05.2004 07:55 13,3 C 13,3 C 85 % 1004 hPa 0,0 l/m 1,3 m/s (1 Bft) W-SW 255 0,00 min 11,4 klux 10,8 C 13,3 C
01.05.2004 08:00 13,5 C 13,5 C 85 % 1004 hPa 0,0 l/m 1,3 m/s (1 Bft) W-SW 255 0,00 min 13,8 klux 11,0 C 13,5 C
01.05.2004 08:05 13,7 C 13,6 C 85 % 1004 hPa 0,0 l/m 2,2 m/s (1 Bft) W22.5 260 0,00 min 16,1 klux 11,2 C 12,8 C
01.05.2004 08:10 13,6 C 13,6 C 84 % 1004 hPa 0,0 l/m 1,9 m/s (1 Bft) W-SW22.5 245 0,00 min 16,4 klux 10,9 C 13,4 C
01.05.2004 08:15 13,6 C 13,8 C 84 % 1004 hPa 0,0 l/m 1,9 m/s (1 Bft) W-SW 250 0,00 min 15,8 klux 10,9 C 13,4 C
01.05.2004 08:20 13,6 C 13,8 C 85 % 1004 hPa 0,0 l/m 2,5 m/s (1 Bft) SW22.5 235 0,00 min 15,1 klux 11,1 C 12,1 C
01.05.2004 08:25 13,7 C 13,9 C 85 % 1004 hPa 0,0 l/m 2,2 m/s (1 Bft) W-SW22.5 245 0,00 min 13,8 klux 11,2 C 12,8 C
01.05.2004 08:30 13,7 C 13,9 C 85 % 1004 hPa 0,0 l/m 2,9 m/s (1 Bft) W-SW22.5 245 0,00 min 15,2 klux 11,2 C 11,4 C
01.05.2004 08:35 13,7 C 13,9 C 85 % 1004 hPa 0,0 l/m 3,4 m/s (1 Bft) W-SW22.5 250 0,00 min 17,1 klux 11,2 C 10,7 C
01.05.2004 08:40 13,8 C 14,0 C 85 % 1004 hPa 0,0 l/m 3,0 m/s (1 Bft) W-SW22.5 250 0,00 min 19,5 klux 11,3 C 11,5 C
01.05.2004 08:45 13,9 C 14,1 C 85 % 1004 hPa 0,0 l/m 2,5 m/s (1 Bft) W-SW22.5 245 0,00 min 20,1 klux 11,4 C 12,4 C
01.05.2004 08:50 14,0 C 14,2 C 84 % 1004 hPa 0,0 l/m 2,3 m/s (1 Bft) W-SW45 250 0,00 min 23,9 klux 11,3 C 12,9 C
01.05.2004 08:55 14,0 C 14,3 C 84 % 1005 hPa 0,0 l/m 2,9 m/s (1 Bft) W-SW45 245 0,00 min 31,3 klux 11,3 C 11,7 C
01.05.2004 09:00 14,4 C 14,4 C 83 % 1005 hPa 0,0 l/m 3,6 m/s (1 Bft) W-SW45 240 0,00 min 25,6 klux 11,5 C 11,1 C
01.05.2004 09:05 14,4 C 14,5 C 83 % 1005 hPa 0,0 l/m 2,8 m/s (1 Bft) W-SW22.5 240 0,00 min 24,8 klux 11,5 C 12,5 C
01.05.2004 09:10 14,4 C 14,6 C 82 % 1005 hPa 0,0 l/m 2,9 m/s (1 Bft) SW45 230 0,00 min 24,2 klux 11,4 C 12,3 C
01.05.2004 09:15 14,2 C 14,6 C 82 % 1005 hPa 0,0 l/m 3,8 m/s (1 Bft) SW22.5 235 0,00 min 23,7 klux 11,2 C 10,6 C
01.05.2004 09:20 14,4 C 14,8 C 82 % 1005 hPa 0,0 l/m 3,1 m/s (1 Bft) W-SW45 240 0,00 min 25,2 klux 11,4 C 11,9 C
01.05.2004 09:25 14,4 C 14,9 C 82 % 1005 hPa 0,0 l/m 2,7 m/s (1 Bft) W-SW22.5 240 0,00 min 26,4 klux 11,4 C 12,5 C
01.05.2004 09:30 14,7 C 15,0 C 81 % 1005 hPa 0,0 l/m 3,3 m/s (1 Bft) W-SW22.5 245 0,00 min 26,0 klux 11,5 C 11,9 C
01.05.2004 09:35 14,8 C 15,0 C 81 % 1005 hPa 0,0 l/m 2,4 m/s (1 Bft) SW22.5 235 0,00 min 25,8 klux 11,6 C 13,5 C
01.05.2004 09:40 15,0 C 15,1 C 79 % 1005 hPa 0,0 l/m 2,9 m/s (1 Bft) W-SW22.5 245 0,00 min 27,8 klux 11,4 C 12,9 C
01.05.2004 09:45 15,1 C 15,2 C 79 % 1005 hPa 0,0 l/m 3,0 m/s (1 Bft) W-SW22.5 240 0,00 min 28,5 klux 11,5 C 12,9 C
01.05.2004 09:50 15,3 C 15,4 C 79 % 1005 hPa 0,0 l/m 3,4 m/s (1 Bft) W-SW22.5 240 0,00 min 27,8 klux 11,7 C 12,5 C
01.05.2004 09:55 15,3 C 15,5 C 78 % 1005 hPa 0,0 l/m 2,9 m/s (1 Bft) W-SW22.5 240 0,00 min 25,9 klux 11,5 C 13,3 C
01.05.2004 10:00 15,2 C 15,7 C 78 % 1005 hPa 0,0 l/m 2,1 m/s (1 Bft) W-SW22.5 250 0,00 min 24,3 klux 11,4 C 14,5 C
01.05.2004 10:05 15,2 C 15,8 C 77 % 1005 hPa 0,0 l/m 2,4 m/s (1 Bft) W-SW22.5 245 0,00 min 22,9 klux 11,2 C 14,0 C
01.05.2004 10:10 15,3 C 15,9 C 78 % 1005 hPa 0,0 l/m 2,2 m/s (1 Bft) W-SW22.5 240 0,00 min 21,2 klux 11,5 C 14,5 C
01.05.2004 10:15 15,3 C 15,9 C 78 % 1005 hPa 0,0 l/m 2,2 m/s (1 Bft) W-SW22.5 245 0,00 min 22,3 klux 11,5 C 14,4 C
01.05.2004 10:20 15,5 C 16,0 C 78 % 1005 hPa 0,0 l/m 2,1 m/s (1 Bft) W-SW22.5 240 0,00 min 25,0 klux 11,7 C 14,8 C
01.05.2004 10:25 15,6 C 16,0 C 77 % 1005 hPa 0,0 l/m 2,4 m/s (1 Bft) W-SW22.5 240 0,00 min 27,7 klux 11,6 C 14,4 C
01.05.2004 10:30 15,7 C 16,2 C 77 % 1005 hPa 0,0 l/m 2,2 m/s (1 Bft) W-SW22.5 245 0,00 min 27,7 klux 11,7 C 14,9 C
01.05.2004 10:35 15,7 C 16,3 C 77 % 1005 hPa 0,0 l/m 2,9 m/s (1 Bft) W-SW22.5 240 0,00 min 32,2 klux 11,7 C 13,7 C
01.05.2004 10:40 16,1 C 16,4 C 75 % 1005 hPa 0,0 l/m 3,3 m/s (1 Bft) W-SW22.5 250 0,00 min 36,2 klux 11,7 C 13,6 C
01.05.2004 10:45 16,3 C 16,6 C 74 % 1005 hPa 0,0 l/m 2,3 m/s (1 Bft) W-SW22.5 240 0,00 min 39,3 klux 11,7 C 15,3 C
01.05.2004 10:50 16,3 C 16,8 C 74 % 1005 hPa 0,0 l/m 2,7 m/s (1 Bft) W-SW22.5 250 0,00 min 43,8 klux 11,7 C 14,7 C
01.05.2004 10:55 17,0 C 16,9 C 72 % 1005 hPa 0,0 l/m 1,9 m/s (1 Bft) SW22.5 230 0,00 min 40,3 klux 11,9 C 16,7 C
01.05.2004 11:00 17,0 C 17,2 C 71 % 1005 hPa 0,0 l/m 1,4 m/s (1 Bft) SW22.5 230 0,00 min 33,6 klux 11,7 C 17,0 C
01.05.2004 11:05 16,9 C 17,4 C 72 % 1005 hPa 0,0 l/m 1,9 m/s (1 Bft) SW22.5 225 0,00 min 32,2 klux 11,8 C 16,7 C
01.05.2004 11:10 16,8 C 17,3 C 70 % 1005 hPa 0,0 l/m 4,8 m/s (1 Bft) W45 265 0,00 min 28,0 klux 11,3 C 12,8 C
01.05.2004 11:15 16,9 C 17,4 C 71 % 1005 hPa 0,0 l/m 3,5 m/s (1 Bft) SW22.5 230 0,00 min 28,2 klux 11,6 C 14,2 C
01.05.2004 11:20 16,9 C 17,4 C 71 % 1005 hPa 0,0 l/m 1,7 m/s (1 Bft) W-SW45 250 0,00 min 26,1 klux 11,6 C 16,9 C
01.05.2004 11:25 16,7 C 17,4 C 68 % 1005 hPa 0,0 l/m 3,3 m/s (1 Bft) W-SW22.5 240 0,00 min 30,0 klux 10,8 C 14,2 C
01.05.2004 11:30 16,8 C 17,4 C 67 % 1005 hPa 0,0 l/m 5,0 m/s (1 Bft) W45 265 0,00 min 33,0 klux 10,6 C 12,5 C
01.05.2004 11:35 17,0 C 17,5 C 67 % 1005 hPa 0,0 l/m 3,6 m/s (1 Bft) W45 275 0,00 min 34,2 klux 10,8 C 14,3 C
01.05.2004 11:40 17,2 C 17,7 C 66 % 1005 hPa 0,0 l/m 1,4 m/s (1 Bft) W67.5 260 0,00 min 36,5 klux 10,8 C 17,2 C
01.05.2004 11:45 16,9 C 17,7 C 66 % 1006 hPa 0,0 l/m 3,1 m/s (1 Bft) W-SW22.5 245 0,00 min 40,8 klux 10,5 C 14,8 C
01.05.2004 11:50 17,4 C 17,9 C 66 % 1006 hPa 0,0 l/m 2,8 m/s (1 Bft) W-SW22.5 240 0,00 min 42,4 klux 11,0 C 15,8 C
01.05.2004 11:55 17,2 C 18,1 C 65 % 1005 hPa 0,0 l/m 3,4 m/s (1 Bft) W-SW45 250 0,00 min 40,1 klux 10,6 C 14,7 C
01.05.2004 12:00 17,3 C 18,2 C 65 % 1006 hPa 0,0 l/m 3,3 m/s (1 Bft) W-SW45 255 0,00 min 35,2 klux 10,7 C 14,9 C
01.05.2004 12:05 17,1 C 18,3 C 66 % 1006 hPa 0,0 l/m 2,6 m/s (1 Bft) W-SW22.5 240 0,00 min 34,0 klux 10,7 C 15,7 C
01.05.2004 12:10 17,0 C 18,3 C 64 % 1006 hPa 0,0 l/m 2,8 m/s (1 Bft) W-SW22.5 245 0,00 min 27,6 klux 10,1 C 15,3 C
01.05.2004 12:15 16,9 C 18,1 C 67 % 1006 hPa 0,0 l/m 4,3 m/s (1 Bft) W67.5 270 0,00 min 22,5 klux 10,7 C 13,4 C
01.05.2004 12:20 16,7 C 18,0 C 67 % 1006 hPa 0,0 l/m 1,8 m/s (1 Bft) W22.5 265 0,00 min 20,4 klux 10,5 C 16,7 C
01.05.2004 12:25 16,7 C 17,8 C 67 % 1006 hPa 0,0 l/m 3,1 m/s (1 Bft) W45 270 0,00 min 19,6 klux 10,5 C 14,5 C
01.05.2004 12:30 16,7 C 17,8 C 68 % 1006 hPa 0,0 l/m 2,4 m/s (1 Bft) W 260 0,00 min 16,0 klux 10,8 C 15,5 C
01.05.2004 12:35 16,5 C 17,7 C 68 % 1006 hPa 0,0 l/m 2,8 m/s (1 Bft) W67.5 270 0,00 min 14,3 klux 10,6 C 14,8 C
01.05.2004 12:40 16,6 C 17,6 C 70 % 1006 hPa 0,0 l/m 1,0 m/s (0 Bft) W-SW 255 0,00 min 12,2 klux 11,1 C 16,6 C
01.05.2004 12:45 16,5 C 17,4 C 72 % 1006 hPa 0,4 l/m 0,0 m/s (0 Bft) W-SW 255 0,00 min 10,1 klux 11,4 C 16,5 C
01.05.2004 12:50 16,2 C 17,3 C 73 % 1006 hPa 0,0 l/m 0,2 m/s (0 Bft) W-NW45 290 0,00 min 8,72 klux 11,4 C 16,2 C
01.05.2004 12:55 16,0 C 17,2 C 75 % 1006 hPa 0,4 l/m 0,0 m/s (0 Bft) W-NW 295 0,00 min 6,66 klux 11,6 C 16,0 C
01.05.2004 13:00 15,9 C 17,0 C 78 % 1006 hPa 0,4 l/m 0,0 m/s (0 Bft) W-NW 300 0,00 min 7,09 klux 12,1 C 15,9 C
01.05.2004 13:05 15,5 C 16,8 C 81 % 1006 hPa 0,0 l/m 0,5 m/s (0 Bft) SW45 215 0,00 min 7,71 klux 12,3 C 15,5 C
01.05.2004 13:10 15,1 C 16,7 C 83 % 1006 hPa 0,4 l/m 1,2 m/s (1 Bft) W-SW22.5 250 0,00 min 7,45 klux 12,2 C 15,1 C
01.05.2004 13:15 15,1 C 16,5 C 83 % 1006 hPa 0,4 l/m 1,6 m/s (1 Bft) W-SW22.5 245 0,00 min 7,56 klux 12,2 C 15,1 C
01.05.2004 13:20 15,0 C 16,3 C 84 % 1006 hPa 0,4 l/m 1,2 m/s (1 Bft) SW67.5 225 0,00 min 7,70 klux 12,3 C 15,0 C
01.05.2004 13:25 14,9 C 16,2 C 86 % 1006 hPa 0,4 l/m 0,9 m/s (0 Bft) W-SW22.5 250 0,00 min 8,23 klux 12,6 C 14,9 C
01.05.2004 13:30 15,0 C 16,0 C 86 % 1006 hPa 0,7 l/m 0,3 m/s (0 Bft) SW22.5 235 0,00 min 9,6 klux 12,7 C 15,0 C
01.05.2004 13:35 15,0 C 16,0 C 87 % 1006 hPa 0,4 l/m 0,3 m/s (0 Bft) W-SW 245 0,00 min 11,7 klux 12,9 C 15,0 C
01.05.2004 13:40 14,8 C 15,9 C 88 % 1006 hPa 0,0 l/m 1,2 m/s (1 Bft) W-SW 245 0,00 min 14,2 klux 12,8 C 14,8 C
01.05.2004 13:45 15,0 C 15,9 C 87 % 1006 hPa 0,7 l/m 2,1 m/s (1 Bft) W-SW45 245 0,00 min 15,6 klux 12,9 C 14,3 C
01.05.2004 13:50 14,9 C 15,9 C 88 % 1006 hPa 0,4 l/m 2,1 m/s (1 Bft) SW22.5 235 0,00 min 16,8 klux 12,9 C 14,3 C
01.05.2004 13:55 15,0 C 15,9 C 88 % 1006 hPa 0,4 l/m 2,3 m/s (1 Bft) W-SW22.5 250 0,00 min 20,5 klux 13,0 C 14,0 C
01.05.2004 14:00 14,9 C 15,9 C 89 % 1006 hPa 0,7 l/m 4,3 m/s (1 Bft) W-SW22.5 250 0,00 min 21,2 klux 13,1 C 11,0 C
01.05.2004 14:05 14,9 C 15,8 C 88 % 1006 hPa 0,0 l/m 3,9 m/s (1 Bft) W-SW22.5 255 0,00 min 22,7 klux 12,9 C 11,4 C
01.05.2004 14:10 14,8 C 15,8 C 88 % 1006 hPa 0,4 l/m 3,2 m/s (1 Bft) W-SW22.5 250 0,00 min 24,7 klux 12,8 C 12,2 C
01.05.2004 14:15 15,0 C 15,8 C 87 % 1006 hPa 0,0 l/m 3,6 m/s (1 Bft) W-SW45 250 0,00 min 24,1 klux 12,9 C 11,9 C
01.05.2004 14:20 15,0 C 15,7 C 87 % 1006 hPa 0,0 l/m 3,0 m/s (1 Bft) SW45 235 0,00 min 22,5 klux 12,9 C 12,8 C
01.05.2004 14:25 15,1 C 15,7 C 87 % 1006 hPa 0,0 l/m 3,5 m/s (1 Bft) W-SW45 240 0,00 min 22,3 klux 13,0 C 12,2 C
01.05.2004 14:30 15,0 C 15,6 C 87 % 1006 hPa 0,4 l/m 3,3 m/s (1 Bft) SW22.5 230 0,00 min 17,7 klux 12,9 C 12,4 C
01.05.2004 14:35 14,9 C 15,5 C 87 % 1006 hPa 0,0 l/m 3,4 m/s (1 Bft) W-SW45 240 0,00 min 16,0 klux 12,8 C 12,1 C
01.05.2004 14:40 14,9 C 15,4 C 87 % 1006 hPa 0,0 l/m 3,6 m/s (1 Bft) W-SW22.5 250 0,00 min 15,2 klux 12,8 C 11,7 C
01.05.2004 14:45 14,8 C 15,4 C 87 % 1006 hPa 0,0 l/m 3,2 m/s (1 Bft) W-SW22.5 245 0,00 min 12,8 klux 12,7 C 12,2 C
01.05.2004 14:50 14,6 C 15,3 C 87 % 1006 hPa 0,0 l/m 4,4 m/s (1 Bft) W-SW45 250 0,00 min 12,2 klux 12,5 C 10,4 C
01.05.2004 14:55 14,5 C 15,3 C 87 % 1006 hPa 0,0 l/m 5,5 m/s (1 Bft) W-SW45 240 0,00 min 11,3 klux 12,4 C 9,1 C
01.05.2004 15:00 14,3 C 15,0 C 87 % 1006 hPa 0,0 l/m 5,1 m/s (1 Bft) W-SW67.5 240 0,00 min 10,5 klux 12,2 C 9,3 C
01.05.2004 15:05 14,2 C 14,9 C 87 % 1006 hPa 0,0 l/m 3,7 m/s (1 Bft) W-SW22.5 250 0,00 min 6,24 klux 12,1 C 10,9 C
01.05.2004 15:10 14,2 C 14,9 C 88 % 1006 hPa 0,0 l/m 2,3 m/s (1 Bft) W22.5 260 0,00 min 4,41 klux 12,2 C 13,1 C
01.05.2004 15:15 14,2 C 14,8 C 88 % 1006 hPa 0,4 l/m 1,9 m/s (1 Bft) W-SW22.5 245 0,00 min 2,89 klux 12,2 C 14,0 C
01.05.2004 15:20 14,1 C 14,7 C 88 % 1006 hPa 0,0 l/m 2,7 m/s (1 Bft) W-SW45 250 0,00 min 5,26 klux 12,1 C 12,3 C
01.05.2004 15:25 14,0 C 14,7 C 88 % 1006 hPa 0,4 l/m 2,4 m/s (1 Bft) W-SW22.5 240 0,00 min 7,04 klux 12,0 C 12,7 C
01.05.2004 15:30 14,0 C 14,7 C 89 % 1006 hPa 0,0 l/m 2,4 m/s (1 Bft) W-SW22.5 255 0,00 min 8,14 klux 12,2 C 12,7 C
01.05.2004 15:35 13,9 C 14,6 C 89 % 1006 hPa 0,0 l/m 3,0 m/s (1 Bft) W-SW22.5 255 0,00 min 6,95 klux 12,1 C 11,5 C
01.05.2004 15:40 13,9 C 14,6 C 89 % 1006 hPa 0,4 l/m 2,7 m/s (1 Bft) W-SW22.5 240 0,00 min 4,65 klux 12,1 C 12,1 C
01.05.2004 15:45 13,9 C 14,6 C 89 % 1006 hPa 0,0 l/m 2,9 m/s (1 Bft) W22.5 260 0,00 min 6,72 klux 12,1 C 11,7 C
01.05.2004 15:50 13,9 C 14,5 C 89 % 1006 hPa 0,0 l/m 3,5 m/s (1 Bft) W-SW22.5 250 0,00 min 8,74 klux 12,1 C 10,8 C
01.05.2004 15:55 13,8 C 14,5 C 90 % 1006 hPa 0,4 l/m 4,0 m/s (1 Bft) W-SW22.5 250 0,00 min 8,71 klux 12,2 C 10,0 C
01.05.2004 16:00 13,8 C 14,5 C 90 % 1006 hPa 0,0 l/m 3,4 m/s (1 Bft) W22.5 260 0,00 min 8,76 klux 12,2 C 10,8 C
01.05.2004 16:05 13,9 C 14,5 C 90 % 1006 hPa 0,4 l/m 3,3 m/s (1 Bft) W-SW22.5 240 0,00 min 8,14 klux 12,3 C 11,1 C
01.05.2004 16:10 13,8 C 14,5 C 90 % 1006 hPa 0,0 l/m 3,5 m/s (1 Bft) W-SW22.5 245 0,00 min 7,76 klux 12,2 C 10,7 C
01.05.2004 16:15 13,8 C 14,5 C 90 % 1006 hPa 0,0 l/m 3,8 m/s (1 Bft) W-SW 250 0,00 min 7,61 klux 12,2 C 10,3 C
01.05.2004 16:20 13,8 C 14,4 C 90 % 1006 hPa 0,4 l/m 3,1 m/s (1 Bft) W-SW22.5 250 0,00 min 5,56 klux 12,2 C 11,3 C
01.05.2004 16:25 13,7 C 14,4 C 90 % 1006 hPa 0,4 l/m 3,8 m/s (1 Bft) W22.5 260 0,00 min 3,60 klux 12,1 C 10,1 C
01.05.2004 16:30 13,7 C 14,4 C 90 % 1006 hPa 0,7 l/m 3,3 m/s (1 Bft) W45 260 0,00 min 3,76 klux 12,1 C 10,9 C
01.05.2004 16:35 13,7 C 14,3 C 90 % 1006 hPa 0,4 l/m 3,8 m/s (1 Bft) W-SW22.5 240 0,00 min 5,52 klux 12,1 C 10,1 C
01.05.2004 16:40 13,6 C 14,3 C 90 % 1006 hPa 0,7 l/m 3,7 m/s (1 Bft) W-SW45 255 0,00 min 5,79 klux 12,0 C 10,1 C
01.05.2004 16:45 13,6 C 14,2 C 89 % 1006 hPa 0,4 l/m 3,9 m/s (1 Bft) W-SW22.5 255 0,00 min 6,19 klux 11,8 C 9,8 C
01.05.2004 16:50 13,6 C 14,2 C 89 % 1006 hPa 0,4 l/m 2,6 m/s (1 Bft) W45 260 0,00 min 8,01 klux 11,8 C 12,0 C
01.05.2004 16:55 13,6 C 14,2 C 89 % 1006 hPa 0,4 l/m 1,6 m/s (1 Bft) W-SW 240 0,00 min 7,77 klux 11,8 C 13,6 C
01.05.2004 17:00 13,4 C 14,2 C 89 % 1006 hPa 0,4 l/m 2,3 m/s (1 Bft) W-SW22.5 245 0,00 min 4,16 klux 11,6 C 12,2 C
01.05.2004 17:05 13,4 C 14,2 C 89 % 1006 hPa 0,4 l/m 4,6 m/s (1 Bft) W-SW45 250 0,00 min 8,86 klux 11,6 C 8,7 C
01.05.2004 17:10 13,5 C 14,2 C 89 % 1006 hPa 0,0 l/m 2,9 m/s (1 Bft) W-SW45 240 0,00 min 8,44 klux 11,7 C 11,2 C
01.05.2004 17:15 13,3 C 14,1 C 89 % 1006 hPa 0,7 l/m 3,6 m/s (1 Bft) W-SW22.5 250 0,00 min 7,54 klux 11,5 C 10,0 C
01.05.2004 17:20 13,2 C 14,1 C 89 % 1007 hPa 0,0 l/m 3,7 m/s (1 Bft) W45 260 0,00 min 4,40 klux 11,4 C 9,7 C
01.05.2004 17:25 13,1 C 13,9 C 88 % 1007 hPa 0,4 l/m 4,7 m/s (1 Bft) W-SW22.5 250 0,00 min 6,03 klux 11,2 C 8,2 C
01.05.2004 17:30 13,0 C 13,8 C 88 % 1007 hPa 0,4 l/m 3,4 m/s (1 Bft) W45 260 0,00 min 6,52 klux 11,1 C 9,8 C
01.05.2004 17:35 13,0 C 13,8 C 88 % 1007 hPa 0,0 l/m 2,4 m/s (1 Bft) W-SW 245 0,00 min 6,82 klux 11,1 C 11,5 C
01.05.2004 17:40 13,1 C 13,7 C 88 % 1007 hPa 0,4 l/m 2,2 m/s (1 Bft) W-SW22.5 245 0,00 min 7,39 klux 11,2 C 12,2 C
01.05.2004 17:45 13,0 C 13,7 C 88 % 1007 hPa 0,0 l/m 2,6 m/s (1 Bft) W67.5 270 0,00 min 7,40 klux 11,1 C 11,2 C
01.05.2004 17:50 12,9 C 13,7 C 89 % 1007 hPa 0,4 l/m 2,9 m/s (1 Bft) W-SW22.5 250 0,00 min 6,39 klux 11,1 C 10,5 C
01.05.2004 17:55 12,9 C 13,6 C 89 % 1007 hPa 0,4 l/m 1,6 m/s (1 Bft) W-SW22.5 245 0,00 min 5,64 klux 11,1 C 12,9 C
01.05.2004 18:00 12,8 C 13,6 C 89 % 1007 hPa 0,0 l/m 2,3 m/s (1 Bft) W-SW22.5 250 0,00 min 5,35 klux 11,0 C 11,7 C
01.05.2004 18:05 12,9 C 13,6 C 89 % 1007 hPa 0,4 l/m 1,4 m/s (1 Bft) W-SW 245 0,00 min 4,66 klux 11,1 C 12,9 C
01.05.2004 18:10 12,9 C 13,6 C 89 % 1007 hPa 0,0 l/m 1,4 m/s (1 Bft) W-SW 255 0,00 min 4,41 klux 11,1 C 12,9 C
01.05.2004 18:15 12,8 C 13,5 C 90 % 1007 hPa 0,4 l/m 2,7 m/s (1 Bft) W-SW22.5 240 0,00 min 4,24 klux 11,2 C 10,9 C
01.05.2004 18:20 12,7 C 13,5 C 90 % 1007 hPa 0,4 l/m 1,7 m/s (1 Bft) W-SW 245 0,00 min 4,13 klux 11,1 C 12,7 C
01.05.2004 18:25 12,7 C 13,5 C 91 % 1007 hPa 0,0 l/m 1,6 m/s (1 Bft) W-SW22.5 250 0,00 min 4,22 klux 11,3 C 12,7 C
01.05.2004 18:30 12,6 C 13,4 C 91 % 1007 hPa 0,4 l/m 2,0 m/s (1 Bft) W-SW22.5 245 0,00 min 4,29 klux 11,2 C 12,1 C
01.05.2004 18:35 12,6 C 13,4 C 91 % 1007 hPa 0,4 l/m 2,1 m/s (1 Bft) W-SW22.5 250 0,00 min 4,45 klux 11,2 C 11,8 C
01.05.2004 18:40 12,6 C 13,4 C 91 % 1007 hPa 0,0 l/m 2,6 m/s (1 Bft) W-SW22.5 255 0,00 min 4,58 klux 11,2 C 10,7 C
01.05.2004 18:45 12,5 C 13,3 C 91 % 1007 hPa 0,4 l/m 3,0 m/s (1 Bft) W-SW22.5 250 0,00 min 4,77 klux 11,1 C 10,0 C
01.05.2004 18:50 12,5 C 13,3 C 91 % 1007 hPa 0,0 l/m 3,3 m/s (1 Bft) W-SW22.5 245 0,00 min 4,86 klux 11,1 C 9,4 C
01.05.2004 18:55 12,5 C 13,3 C 91 % 1007 hPa 0,4 l/m 2,2 m/s (1 Bft) W-SW22.5 250 0,00 min 4,84 klux 11,1 C 11,5 C
01.05.2004 19:00 12,5 C 13,3 C 91 % 1007 hPa 0,4 l/m 2,7 m/s (1 Bft) W-SW22.5 250 0,00 min 4,80 klux 11,1 C 10,6 C
01.05.2004 19:05 12,5 C 13,3 C 91 % 1007 hPa 0,0 l/m 2,0 m/s (1 Bft) W-SW22.5 250 0,00 min 4,67 klux 11,1 C 12,0 C
01.05.2004 19:10 12,5 C 13,2 C 91 % 1007 hPa 0,4 l/m 2,7 m/s (1 Bft) W-SW22.5 250 0,00 min 4,43 klux 11,1 C 10,5 C
01.05.2004 19:15 12,5 C 13,2 C 91 % 1007 hPa 0,7 l/m 3,0 m/s (1 Bft) W-SW22.5 255 0,00 min 4,35 klux 11,1 C 9,9 C
01.05.2004 19:20 12,3 C 13,2 C 91 % 1007 hPa 0,0 l/m 2,9 m/s (1 Bft) W-SW22.5 250 0,00 min 4,33 klux 10,9 C 10,0 C
01.05.2004 19:25 12,3 C 13,2 C 91 % 1007 hPa 0,4 l/m 3,8 m/s (1 Bft) W-SW22.5 245 0,00 min 4,03 klux 10,9 C 8,4 C
01.05.2004 19:30 12,2 C 13,1 C 91 % 1007 hPa 0,0 l/m 3,9 m/s (1 Bft) W-SW22.5 250 0,00 min 3,76 klux 10,8 C 8,2 C
01.05.2004 19:35 12,2 C 13,1 C 91 % 1007 hPa 0,0 l/m 4,6 m/s (1 Bft) W-SW 250 0,00 min 3,49 klux 10,8 C 7,3 C
01.05.2004 19:40 12,2 C 13,0 C 91 % 1007 hPa 0,4 l/m 3,8 m/s (1 Bft) W-SW22.5 250 0,00 min 3,17 klux 10,8 C 8,4 C
01.05.2004 19:45 12,1 C 13,0 C 91 % 1007 hPa 0,0 l/m 3,7 m/s (1 Bft) W-SW22.5 255 0,00 min 2,62 klux 10,7 C 8,4 C
01.05.2004 19:50 12,1 C 12,9 C 91 % 1007 hPa 0,0 l/m 3,6 m/s (1 Bft) W-SW22.5 250 0,00 min 2,19 klux 10,7 C 8,5 C
01.05.2004 19:55 11,9 C 12,9 C 91 % 1007 hPa 0,0 l/m 3,4 m/s (1 Bft) W-SW22.5 250 0,00 min 1,85 klux 10,5 C 8,7 C
01.05.2004 20:00 11,9 C 12,8 C 91 % 1007 hPa 0,4 l/m 3,3 m/s (1 Bft) W-SW22.5 250 0,00 min 1,54 klux 10,5 C 8,8 C
01.05.2004 20:05 11,8 C 12,7 C 91 % 1007 hPa 0,0 l/m 3,3 m/s (1 Bft) W-SW22.5 250 0,00 min 1,40 klux 10,4 C 8,7 C
01.05.2004 20:10 12,1 C 12,6 C 91 % 1007 hPa 0,4 l/m 2,4 m/s (1 Bft) W-SW22.5 250 0,00 min 1,33 klux 10,7 C 10,6 C
01.05.2004 20:15 12,0 C 12,6 C 90 % 1007 hPa 0,0 l/m 2,9 m/s (1 Bft) W-SW 250 0,00 min 1,36 klux 10,4 C 9,6 C
01.05.2004 20:20 11,8 C 12,6 C 91 % 1007 hPa 0,0 l/m 2,8 m/s (1 Bft) W-SW22.5 250 0,00 min 1,44 klux 10,4 C 9,5 C
01.05.2004 20:25 12,0 C 12,5 C 91 % 1007 hPa 0,0 l/m 3,0 m/s (1 Bft) W-SW22.5 250 0,00 min 1,29 klux 10,6 C 9,4 C
01.05.2004 20:30 11,9 C 12,5 C 92 % 1007 hPa 0,4 l/m 2,3 m/s (1 Bft) W-SW 245 0,00 min 759 lux 10,6 C 10,7 C
01.05.2004 20:35 11,9 C 12,5 C 92 % 1007 hPa 0,0 l/m 1,9 m/s (1 Bft) W-SW22.5 245 0,00 min 389 lux 10,6 C 11,5 C
01.05.2004 20:40 11,9 C 12,4 C 92 % 1007 hPa 0,0 l/m 2,2 m/s (1 Bft) W-SW22.5 245 0,00 min 214 lux 10,6 C 11,0 C
01.05.2004 20:45 11,8 C 12,4 C 92 % 1007 hPa 0,0 l/m 3,2 m/s (1 Bft) W-SW22.5 255 0,00 min 144 lux 10,5 C 8,8 C
01.05.2004 20:50 11,8 C 12,4 C 92 % 1007 hPa 0,4 l/m 2,4 m/s (1 Bft) W-SW45 250 0,00 min 101 lux 10,5 C 10,4 C
01.05.2004 20:55 11,8 C 12,3 C 92 % 1007 hPa 0,0 l/m 2,8 m/s (1 Bft) W-SW22.5 250 0,00 min 66 lux 10,5 C 9,5 C
01.05.2004 21:00 11,8 C 12,3 C 92 % 1007 hPa 0,0 l/m 2,0 m/s (1 Bft) W45 260 0,00 min 38 lux 10,5 C 11,3 C
01.05.2004 21:05 11,8 C 12,3 C 92 % 1007 hPa 0,4 l/m 1,9 m/s (1 Bft) W22.5 260 0,00 min 28 lux 10,5 C 11,4 C
01.05.2004 21:10 11,8 C 12,2 C 92 % 1007 hPa 0,0 l/m 2,3 m/s (1 Bft) W-SW22.5 255 0,00 min 16 lux 10,5 C 10,6 C
01.05.2004 21:15 11,8 C 12,2 C 92 % 1008 hPa 0,0 l/m 2,4 m/s (1 Bft) W-SW22.5 255 0,00 min 6 lux 10,5 C 10,4 C
01.05.2004 21:20 11,9 C 12,2 C 91 % 1008 hPa 0,0 l/m 1,8 m/s (1 Bft) W22.5 270 0,00 min 2 lux 10,5 C 11,9 C
01.05.2004 21:25 11,9 C 12,2 C 91 % 1008 hPa 0,4 l/m 2,3 m/s (1 Bft) W-SW22.5 250 0,00 min 0 lux 10,5 C 10,8 C
01.05.2004 21:30 11,9 C 12,2 C 91 % 1008 hPa 0,0 l/m 3,0 m/s (1 Bft) W-SW22.5 245 0,00 min 0 lux 10,5 C 9,3 C
01.05.2004 21:35 11,8 C 12,2 C 90 % 1008 hPa 0,0 l/m 1,7 m/s (1 Bft) W-SW 245 0,00 min 0 lux 10,2 C 11,8 C
01.05.2004 21:40 11,8 C 12,2 C 89 % 1008 hPa 0,4 l/m 1,6 m/s (1 Bft) W-SW 245 0,00 min 0 lux 10,0 C 11,8 C
01.05.2004 21:45 11,8 C 12,2 C 89 % 1008 hPa 0,0 l/m 2,1 m/s (1 Bft) W-SW22.5 250 0,00 min 0 lux 10,0 C 11,1 C
01.05.2004 21:50 11,5 C 12,2 C 88 % 1008 hPa 0,0 l/m 1,8 m/s (1 Bft) W22.5 260 0,00 min 0 lux 9,6 C 11,4 C
01.05.2004 21:55 11,7 C 12,2 C 87 % 1008 hPa 0,4 l/m 2,8 m/s (1 Bft) W22.5 260 0,00 min 0 lux 9,6 C 9,5 C
01.05.2004 22:00 11,7 C 12,2 C 87 % 1008 hPa 0,0 l/m 2,7 m/s (1 Bft) W-SW22.5 250 0,00 min 0 lux 9,6 C 9,6 C
01.05.2004 22:05 11,6 C 12,2 C 87 % 1008 hPa 0,0 l/m 2,4 m/s (1 Bft) W45 260 0,00 min 0 lux 9,5 C 10,2 C
01.05.2004 22:10 11,8 C 12,1 C 87 % 1008 hPa 0,0 l/m 2,9 m/s (1 Bft) W-SW22.5 245 0,00 min 0 lux 9,7 C 9,3 C
01.05.2004 22:15 11,8 C 12,1 C 88 % 1008 hPa 0,0 l/m 2,1 m/s (1 Bft) W-SW 240 0,00 min 0 lux 9,9 C 11,1 C
01.05.2004 22:20 11,7 C 12,1 C 88 % 1008 hPa 0,4 l/m 2,0 m/s (1 Bft) W-SW 250 0,00 min 0 lux 9,8 C 11,2 C
01.05.2004 22:25 11,6 C 12,1 C 89 % 1008 hPa 0,0 l/m 1,9 m/s (1 Bft) W-SW 240 0,00 min 0 lux 9,8 C 11,3 C
01.05.2004 22:30 11,6 C 12,1 C 90 % 1008 hPa 0,0 l/m 1,5 m/s (1 Bft) W-SW22.5 240 0,00 min 0 lux 10,0 C 11,6 C
01.05.2004 22:35 11,5 C 12,0 C 91 % 1008 hPa 0,0 l/m 1,9 m/s (1 Bft) W-SW22.5 245 0,00 min 0 lux 10,1 C 11,3 C
01.05.2004 22:40 11,5 C 12,0 C 92 % 1008 hPa 0,4 l/m 2,1 m/s (1 Bft) W-SW22.5 245 0,00 min 0 lux 10,2 C 10,7 C
01.05.2004 22:45 11,5 C 12,0 C 92 % 1008 hPa 0,0 l/m 1,9 m/s (1 Bft) SW22.5 235 0,00 min 0 lux 10,2 C 11,1 C
01.05.2004 22:50 11,4 C 11,9 C 92 % 1008 hPa 0,4 l/m 2,1 m/s (1 Bft) W-SW 240 0,00 min 0 lux 10,1 C 10,7 C
01.05.2004 22:55 11,4 C 11,9 C 93 % 1008 hPa 0,4 l/m 1,9 m/s (1 Bft) W-SW 240 0,00 min 0 lux 10,3 C 11,1 C
01.05.2004 23:00 11,4 C 11,8 C 93 % 1008 hPa 0,4 l/m 1,3 m/s (1 Bft) W-SW22.5 250 0,00 min 0 lux 10,3 C 11,4 C
01.05.2004 23:05 11,4 C 11,8 C 93 % 1008 hPa 0,4 l/m 2,1 m/s (1 Bft) W-SW 250 0,00 min 0 lux 10,3 C 10,7 C
01.05.2004 23:10 11,4 C 11,8 C 93 % 1008 hPa 0,4 l/m 2,3 m/s (1 Bft) W-SW 240 0,00 min 0 lux 10,3 C 10,1 C
01.05.2004 23:15 11,4 C 11,8 C 94 % 1008 hPa 0,0 l/m 1,7 m/s (1 Bft) W-SW22.5 245 0,00 min 0 lux 10,5 C 11,4 C
01.05.2004 23:20 11,5 C 11,8 C 94 % 1008 hPa 0,4 l/m 1,8 m/s (1 Bft) W-SW 240 0,00 min 0 lux 10,6 C 11,4 C
01.05.2004 23:25 11,2 C 11,8 C 94 % 1008 hPa 0,0 l/m 1,3 m/s (1 Bft) W-SW 245 0,00 min 0 lux 10,3 C 11,2 C
01.05.2004 23:30 11,4 C 11,8 C 94 % 1008 hPa 0,4 l/m 2,3 m/s (1 Bft) W-SW 250 0,00 min 0 lux 10,5 C 10,1 C
01.05.2004 23:35 11,4 C 11,8 C 94 % 1008 hPa 0,0 l/m 1,5 m/s (1 Bft) W-SW 240 0,00 min 0 lux 10,5 C 11,4 C
01.05.2004 23:40 11,4 C 11,8 C 94 % 1008 hPa 0,4 l/m 2,3 m/s (1 Bft) W-SW22.5 245 0,00 min 0 lux 10,5 C 10,2 C
01.05.2004 23:45 11,4 C 11,8 C 94 % 1008 hPa 0,4 l/m 2,5 m/s (1 Bft) W-SW22.5 245 0,00 min 0 lux 10,5 C 9,7 C
01.05.2004 23:50 11,4 C 11,8 C 94 % 1008 hPa 0,0 l/m 2,2 m/s (1 Bft) W-SW22.5 245 0,00 min 0 lux 10,5 C 10,4 C
01.05.2004 23:55 11,4 C 11,8 C 94 % 1008 hPa 0,4 l/m 2,8 m/s (1 Bft) W-SW22.5 245 0,00 min 0 lux 10,5 C 9,0 C
_ Min-Zeit 23:25 23:00 12:10 00:00 - 03:15 - - - - 22:05 02:40
Minimum _ 11,2 C 11,8 C 64 % 1002 hPa - 0,0 m/s (0 Bft) - - - - 9,5 C 7,3 C
_ Max-Zeit 11:50 12:05 23:15 21:15 13:30 02:40 - - 00:00 10:50 14:00 11:40
Maximum _ 17,4 C 18,3 C 94 % 1008 hPa 0,7 l/m 5,9 m/s
W-NW (4 Bft)
- - 0,00 min 43,8 klux 13,1 C 17,2 C
Durchschnitt _ 13,5 C 14,1 C 86 % 1005 hPa #28,1 l/m 2,5 m/s (2 Bft) W-SW - #0 min. 8,06 klux 11,1 C 11,9 C